Probability
10 10 6 6 10 10 13 10 3 3 0 10 6 13 10 3 6 10 10 35 42 45 42 42 45 42 45 48 45 45 48 45 52 45 45 42 39 42 42 35 39 35 35
10 6 6 6 6 6 3 0 3 3 0 3 3 3 3 3 10 10 6 23 35 45 42 45 55 55 45 48 45 39 45 48 52 52 48 42 45 39 45 45 35 42 35
16 13 10 3 6 3 3 3 3 3 3 6 0 0 6 0 6 6 6 3 16 29 52 52 48 58 55 55 42 45 39 48 48 48 39 35 45 48 42 35 32 35 32
10 13 6 3 6 6 6 10 6 3 3 3 0 0 3 3 6 6 6 6 3 10 35 52 55 61 48 55 52 48 48 42 39 39 32 39 39 35 29 35 35 26 23
13 13 10 13 10 6 6 6 6 6 3 6 0 0 0 3 3 10 10 3 3 3 3 19 55 58 58 58 55 52 48 45 32 35 32 29 26 19 19 26 23 23 13
16 10 10 10 6 6 6 6 6 10 6 6 6 3 3 0 0 0 3 0 3 0 3 6 3 26 45 45 45 52 52 39 29 29 32 29 23 23 19 23 19 16 10
16 13 13 10 6 6 6 6 10 10 10 6 3 3 3 3 3 3 0 0 3 0 0 3 3 0 3 32 35 45 45 45 35 26 26 26 23 26 23 16 16 13 16
16 23 10 10 10 10 10 13 6 6 6 10 3 3 3 3 3 3 3 0 3 3 3 10 3 3 0 6 16 29 39 39 39 32 26 26 26 26 19 19 16 13 13
16 13 16 16 13 13 6 6 10 6 6 6 6 3 3 3 3 3 6 6 6 3 3 0 6 10 6 6 10 23 29 29 29 32 26 26 29 23 23 16 13 16 16
19 26 23 16 6 10 10 13 16 10 6 3 6 6 3 3 3 3 3 3 3 3 3 3 6 6 6 6 3 10 23 29 26 29 32 29 29 26 23 16 6 13 16
23 29 23 19 16 13 13 6 10 10 10 10 10 6 6 3 3 3 3 3 3 3 3 3 6 6 10 3 3 13 13 10 23 29 32 32 32 19 19 16 13 10 6
16 13 16 19 13 10 13 13 3 6 6 6 6 6 6 6 6 3 3 3 3 3 3 3 3 6 10 10 3 6 6 0 0 6 19 26 26 26 19 16 16 16 13
19 16 23 19 13 10 10 10 6 3 3 3 6 6 6 6 6 6 3 3 3 3 3 3 3 3 6 6 6 10 6 3 0 0 0 10 19 16 19 16 13 13 19
16 16 13 16 16 16 16 6 6 0 0 3 6 6 6 6 6 6 6 3 3 0 0 3 3 3 3 6 6 10 10 6 0 0 0 0 6 6 10 10 10 10 6
16 16 16 19 13 10 10 10 10 10 6 6 3 3 3 3 3 6 6 6 3 0 0 0 3 3 3 3 6 6 10 6 0 0 0 0 0 3 3 0 0 0 0
23 19 13 10 13 13 10 10 10 10 10 6 6 3 3 3 3 6 3 3 0 0 0 0 0 0 3 0 3 6 3 3 3 0 0 0 0 0 0 0 0 0 0
19 19 13 13 13 16 16 10 10 10 10 10 10 6 6 3 3 3 3 3 3 3 3 3 0 0 0 0 0 0 3 3 3 3 0 0 0 0 0 0 0 0 0
16 13 13 13 16 16 13 13 13 13 10 10 10 13 10 10 3 3 3 3 3 3 3 3 3 3 3 0 0 0 0 3 6 3 0 0 0 0 0 0 0 0 0
10 10 10 13 13 16 13 13 13 13 13 13 10 13 13 10 6 3 3 3 3 3 3 3 6 3 3 3 3 0 3 3 3 3 3 0 0 0 0 0 0 0 0
13 13 10 10 10 13 13 13 13 13 16 16 16 16 16 13 13 13 10 10 6 3 3 6 6 3 6 3 3 3 3 6 3 6 6 6 0 0 0 0 0 0 0
16 10 13 13 13 13 13 13 16 16 13 13 16 16 16 16 16 16 16 6 6 6 6 6 6 6 6 3 0 3 3 3 3 6 6 3 3 3 0 0 0 0 0
13 13 16 13 13 13 13 13 13 13 16 16 16 16 16 16 13 3 3 6 6 10 10 6 6 6 6 3 3 3 3 3 3 3 6 3 3 3 3 3 3 0 0
10 16 16 16 10 10 10 3 6 13 16 16 16 16 16 13 13 13 3 3 3 3 6 10 10 10 3 3 6 6 6 3 3 3 3 3 3 3 3 3 0 0 0
6 6 6 6 6 10 10 6 3 6 6 10 10 16 16 16 16 16 13 10 6 6 0 0 6 6 6 6 6 6 10 6 3 3 3 3 3 3 3 0 0 0 0
3 3 6 3 6 6 10 6 0 10 10 10 13 10 13 13 13 6 10 10 10 10 10 0 0 3 0 0 3 3 10 10 6 3 3 3 3 0 0 0 0 0 0
3 3 3 0 3 3 3 3 0 6 10 10 13 13 6 6 6 3 6 10 10 10 6 6 0 0 0 0 0 0 3 6 6 6 0 0 0 0 0 0 0 0 0
Height
5878 5877 5876 5875 5874 5874 5873 5872 5871 5871 5870 5870 5869 5868 5868 5867 5866 5866 5866 5866 5866 5867 5867 5867 5868 5868 5869 5869 5870 5871 5872 5872 5873 5873 5874 5875 5875 5875 5876 5876 5877 5877 5878
5878 5877 5876 5875 5874 5873 5872 5872 5871 5870 5869 5869 5868 5867 5866 5865 5864 5864 5864 5864 5865 5865 5865 5866 5866 5866 5867 5867 5868 5869 5869 5870 5870 5871 5871 5872 5873 5873 5873 5874 5874 5875 5875
5878 5877 5876 5875 5874 5873 5872 5871 5870 5869 5869 5867 5867 5866 5865 5864 5863 5863 5863 5863 5863 5863 5863 5863 5864 5864 5865 5865 5866 5867 5867 5867 5868 5868 5869 5870 5870 5870 5871 5871 5871 5872 5872
5877 5876 5875 5874 5873 5872 5871 5870 5869 5869 5868 5867 5865 5864 5863 5862 5862 5862 5862 5861 5861 5861 5861 5861 5861 5862 5862 5863 5863 5864 5864 5864 5865 5865 5866 5866 5867 5868 5868 5868 5868 5869 5869
5876 5875 5874 5873 5872 5871 5870 5869 5868 5868 5867 5865 5864 5862 5861 5860 5860 5860 5860 5860 5860 5859 5859 5859 5859 5859 5859 5860 5860 5860 5860 5860 5861 5862 5863 5863 5864 5864 5865 5865 5866 5866 5866
5875 5874 5873 5872 5871 5870 5869 5868 5867 5866 5865 5864 5862 5861 5860 5859 5859 5858 5858 5858 5858 5857 5857 5857 5857 5857 5857 5857 5857 5857 5856 5856 5857 5858 5859 5860 5860 5861 5861 5862 5862 5863 5863
5874 5873 5872 5871 5870 5869 5868 5867 5866 5864 5863 5862 5860 5859 5859 5858 5857 5857 5856 5856 5856 5855 5855 5855 5855 5855 5854 5854 5854 5854 5853 5853 5854 5855 5855 5856 5856 5857 5857 5858 5859 5859 5859
5873 5872 5870 5869 5868 5867 5866 5865 5864 5863 5862 5860 5859 5858 5857 5857 5855 5855 5854 5854 5853 5853 5852 5852 5852 5851 5851 5851 5851 5851 5851 5851 5851 5851 5852 5852 5853 5853 5854 5854 5855 5855 5855
5871 5870 5869 5867 5866 5865 5864 5863 5862 5861 5859 5858 5857 5856 5855 5854 5853 5852 5852 5851 5850 5850 5849 5849 5849 5848 5848 5847 5847 5847 5847 5847 5848 5848 5848 5848 5848 5849 5850 5850 5850 5851 5851
5870 5868 5867 5866 5864 5863 5862 5861 5860 5858 5857 5856 5855 5854 5853 5852 5851 5850 5849 5848 5847 5847 5846 5846 5845 5845 5844 5843 5844 5844 5844 5844 5843 5844 5844 5844 5844 5845 5845 5846 5846 5846 5846
5867 5866 5865 5863 5862 5861 5860 5858 5857 5856 5854 5853 5852 5850 5849 5848 5848 5847 5846 5845 5844 5843 5843 5842 5842 5841 5841 5840 5840 5840 5839 5839 5839 5839 5840 5840 5840 5841 5841 5841 5841 5842 5842
5865 5863 5862 5861 5859 5858 5857 5855 5854 5852 5851 5850 5848 5847 5846 5845 5844 5843 5842 5841 5840 5839 5838 5838 5837 5837 5836 5836 5835 5835 5835 5835 5835 5835 5835 5835 5835 5836 5836 5836 5837 5837 5838
5862 5860 5859 5858 5857 5855 5854 5852 5850 5849 5847 5846 5845 5843 5842 5840 5839 5838 5837 5836 5835 5834 5833 5833 5832 5832 5832 5831 5831 5830 5830 5830 5829 5830 5830 5830 5830 5830 5830 5831 5832 5833 5834
5860 5858 5856 5855 5853 5851 5850 5848 5846 5845 5843 5842 5840 5838 5837 5835 5834 5833 5832 5831 5830 5829 5828 5827 5827 5826 5826 5825 5825 5825 5825 5824 5824 5824 5824 5824 5824 5825 5824 5825 5826 5827 5828
5856 5854 5852 5850 5849 5847 5845 5844 5842 5840 5838 5836 5835 5833 5832 5830 5828 5827 5825 5825 5824 5823 5822 5821 5820 5819 5819 5818 5818 5818 5818 5817 5816 5817 5817 5817 5818 5818 5818 5819 5820 5822 5822
5853 5850 5848 5846 5844 5842 5840 5839 5837 5835 5833 5831 5829 5827 5825 5824 5822 5820 5819 5817 5816 5816 5815 5814 5813 5812 5811 5811 5810 5810 5810 5810 5809 5810 5810 5810 5810 5811 5811 5812 5813 5815 5816
5848 5846 5844 5841 5839 5837 5835 5833 5831 5829 5827 5825 5822 5820 5819 5817 5815 5813 5811 5810 5809 5808 5807 5806 5805 5804 5803 5802 5802 5802 5802 5801 5801 5802 5802 5802 5802 5802 5803 5804 5805 5807 5808
5843 5841 5839 5836 5834 5831 5829 5827 5824 5822 5820 5818 5816 5814 5811 5809 5807 5805 5804 5802 5801 5800 5799 5798 5797 5795 5795 5794 5793 5793 5793 5793 5793 5793 5792 5793 5793 5793 5795 5796 5797 5798 5800
5838 5835 5833 5830 5828 5826 5823 5821 5818 5816 5814 5811 5809 5806 5804 5802 5800 5797 5795 5794 5792 5790 5789 5788 5787 5786 5785 5784 5784 5783 5783 5783 5783 5783 5783 5783 5784 5785 5786 5786 5788 5789 5791
5832 5829 5827 5825 5822 5819 5817 5814 5812 5810 5807 5804 5802 5799 5796 5794 5792 5790 5787 5785 5783 5781 5780 5778 5777 5776 5775 5774 5774 5773 5773 5773 5773 5773 5773 5774 5775 5775 5776 5777 5778 5779 5781
5825 5823 5821 5818 5816 5813 5810 5807 5805 5802 5800 5797 5794 5791 5789 5786 5783 5781 5779 5776 5774 5772 5770 5769 5767 5766 5765 5764 5763 5763 5763 5763 5763 5763 5763 5764 5765 5765 5766 5767 5768 5769 5770
5820 5817 5814 5812 5809 5806 5803 5800 5798 5795 5792 5789 5787 5784 5781 5778 5775 5772 5769 5767 5764 5762 5761 5759 5757 5756 5754 5753 5753 5752 5752 5753 5754 5754 5753 5754 5754 5755 5756 5757 5758 5758 5759
5813 5810 5807 5805 5802 5799 5796 5793 5790 5787 5784 5781 5778 5775 5772 5769 5766 5763 5760 5757 5755 5752 5750 5749 5747 5746 5744 5743 5742 5741 5741 5741 5742 5742 5743 5744 5744 5745 5745 5746 5747 5748 5750
5806 5803 5800 5797 5795 5792 5789 5786 5783 5780 5777 5774 5770 5767 5764 5760 5757 5754 5751 5748 5744 5742 5740 5739 5737 5736 5734 5732 5731 5730 5730 5731 5732 5732 5732 5733 5734 5734 5735 5736 5737 5738 5739
5799 5795 5793 5790 5788 5785 5782 5779 5775 5772 5769 5765 5762 5758 5755 5751 5748 5745 5742 5739 5736 5733 5731 5729 5727 5726 5724 5722 5721 5721 5721 5721 5721 5721 5721 5722 5723 5723 5725 5726 5727 5727 5728
5791 5788 5785 5782 5780 5777 5774 5771 5767 5764 5761 5757 5753 5749 5746 5743 5739 5736 5733 5730 5727 5724 5721 5719 5718 5716 5714 5713 5712 5711 5711 5710 5710 5711 5710 5711 5712 5713 5714 5716 5716 5717 5718
Wind_Speed
5 5 6 5 4 4 4 3 3 3 3 3 4 4 4 4 5 5 6 6 6 6 6 7 9 10 10 10 11 12 12 11 11 11 11 11 11 11 10 10 10 10 11
5 5 6 5 5 4 4 4 3 3 3 3 4 4 4 4 4 4 5 6 6 6 6 7 8 9 10 10 10 12 12 12 12 12 13 12 12 12 12 12 11 11 12
6 6 5 5 4 4 4 4 4 4 4 4 4 5 4 4 3 4 4 5 6 6 7 8 9 9 10 10 10 11 12 13 13 13 13 13 13 13 13 13 13 12 13
6 6 5 5 4 4 4 4 4 4 4 5 5 5 6 5 4 4 5 5 6 6 7 8 9 10 11 11 11 11 12 13 13 13 13 13 14 13 14 14 14 13 13
6 5 5 5 4 4 4 4 4 4 5 5 5 5 5 5 5 5 6 6 6 7 8 8 9 11 11 12 11 12 12 13 14 14 14 14 14 14 14 14 14 14 14
6 6 6 5 5 5 4 5 5 5 6 6 6 5 5 5 5 5 6 6 7 7 7 8 9 10 11 12 11 12 12 13 13 14 14 14 14 14 15 15 15 15 14
7 7 7 6 6 6 5 5 5 5 6 6 7 6 5 6 6 7 7 7 7 8 8 9 9 10 10 11 11 11 11 12 13 14 14 14 14 14 15 16 15 15 15
8 8 8 7 7 6 6 6 6 6 7 7 6 6 7 7 7 8 8 8 8 8 9 10 10 10 10 11 12 12 12 12 14 14 14 14 15 15 14 15 16 16 16
9 9 8 8 8 7 7 7 7 7 7 7 6 7 7 7 8 8 8 9 8 8 9 10 10 11 11 11 12 13 14 14 14 15 14 15 16 16 16 15 16 17 17
9 9 9 9 8 8 8 8 8 8 8 8 9 9 9 9 9 10 10 10 10 10 11 11 11 11 11 11 12 13 15 16 16 16 16 16 16 16 17 17 16 17 17
10 10 9 9 9 9 9 9 10 10 10 10 11 11 11 11 11 11 11 12 12 12 13 13 12 12 13 13 13 13 15 16 16 17 17 17 17 17 18 18 18 17 16
11 10 10 10 10 10 10 11 12 12 12 12 13 13 13 13 13 13 13 13 14 15 15 15 14 14 14 15 15 15 15 16 17 18 18 19 19 19 19 19 19 18 17
12 11 11 12 12 12 12 13 13 13 14 14 14 14 15 15 15 15 16 16 16 16 17 17 17 16 16 17 17 17 17 17 18 19 19 20 21 20 20 20 19 19 19
12 13 13 13 13 14 14 14 14 15 15 16 16 17 17 17 18 18 18 18 18 18 19 19 20 20 21 20 19 20 20 20 20 20 20 20 21 21 21 22 21 20 21
14 14 14 15 15 15 15 16 17 17 18 18 18 19 19 20 20 21 21 21 21 21 22 22 23 23 24 24 23 22 23 23 22 23 22 22 23 22 22 22 23 23 22
15 15 16 16 16 17 17 18 19 19 20 20 21 21 22 22 23 23 23 23 23 24 25 25 26 26 26 26 26 25 25 25 25 25 24 24 25 25 24 23 24 25 25
16 16 17 18 18 18 19 20 21 21 21 22 22 23 24 24 24 25 25 25 25 25 26 27 27 28 28 28 28 29 28 28 28 28 27 26 26 25 25 25 26 26 27
17 18 19 20 20 20 21 21 21 22 22 23 23 24 24 24 25 25 26 27 28 28 28 28 28 29 30 31 31 31 31 30 30 31 31 29 28 27 27 28 28 28 29
20 20 21 21 21 21 21 22 22 22 23 23 23 23 24 25 25 26 26 27 29 29 29 29 30 31 31 32 32 33 33 32 32 32 31 30 30 30 29 29 30 31 31
21 20 22 22 23 23 23 23 23 24 24 24 23 23 24 24 25 26 27 27 28 29 30 30 31 32 32 33 33 34 34 33 33 33 33 32 32 31 31 31 32 32 33
22 22 23 24 24 23 24 24 25 25 25 25 25 25 25 26 27 27 28 28 29 29 30 31 31 32 32 33 33 34 34 34 34 33 33 33 33 32 32 32 33 33 34
24 25 25 24 24 25 25 25 26 26 26 26 27 27 27 27 28 28 29 30 30 30 31 31 31 31 31 32 33 34 35 35 34 35 34 34 34 34 33 32 33 33 33
26 25 25 25 25 25 25 26 26 26 27 27 28 28 28 29 29 30 30 30 31 31 31 30 30 30 30 30 31 32 33 33 33 33 34 34 34 34 33 33 33 33 33
26 26 25 25 25 25 26 27 27 28 28 28 29 29 29 29 29 30 30 31 30 30 30 30 30 30 30 30 30 31 32 32 32 33 34 34 34 34 34 32 32 32 34
27 26 27 26 26 27 28 28 29 29 29 29 29 29 29 30 29 29 30 31 31 30 30 29 29 29 29 29 29 29 30 31 31 32 33 34 34 34 33 33 34 33 34
28 28 27 27 27 28 28 29 29 29 29 29 29 29 29 29 29 29 30 31 31 30 30 30 29 29 28 28 28 28 28 29 30 31 32 32 32 32 31 32 33 34 34
Wind_Direction
13 11 7 0 353 339 330 317 299 288 292 294 292 286 270 269 262 251 244 243 244 240 239 242 238 237 233 232 231 230 233 235 234 232 232 233 232 233 233 234 234 234 235
18 12 9 1 356 345 339 336 331 320 315 306 303 299 280 270 259 255 248 249 244 242 246 245 238 232 233 237 237 235 236 238 241 240 238 236 236 237 238 238 238 238 239
9 8 7 4 359 350 346 344 344 331 317 314 311 306 296 277 263 261 257 249 250 250 251 249 242 236 234 237 238 240 243 241 241 240 239 239 238 240 240 239 240 241 241
3 4 3 3 355 344 339 337 333 329 324 313 307 302 295 281 271 267 267 260 258 255 252 250 248 242 240 241 245 249 249 246 241 242 241 240 241 241 239 240 239 240 239
3 357 357 358 348 342 340 337 325 325 323 316 309 301 301 290 281 278 269 269 265 264 258 254 253 248 245 244 248 254 251 245 240 242 243 245 243 241 240 241 240 239 240
5 1 356 349 338 331 328 326 323 319 317 316 312 305 304 297 287 287 284 279 274 268 263 260 257 252 248 246 251 252 249 244 241 240 241 243 245 244 242 243 242 241 243
354 356 350 340 333 330 321 316 317 316 317 318 316 307 298 295 289 288 287 285 278 271 266 264 262 257 256 251 252 249 247 243 242 243 246 247 243 244 245 245 244 243 247
338 340 343 339 329 325 322 316 317 319 319 318 314 308 300 294 288 286 287 285 279 273 268 266 266 263 260 255 252 247 244 242 243 246 250 251 248 245 246 248 246 246 250
323 328 328 328 324 321 318 316 316 319 317 318 315 309 302 293 293 292 291 288 282 276 272 269 268 262 260 259 250 247 244 245 246 246 250 252 251 247 248 249 246 247 248
317 326 326 324 318 314 313 313 312 312 312 310 309 306 300 294 290 287 285 285 283 282 277 272 272 265 262 259 257 254 249 248 247 247 250 252 252 250 250 249 249 250 250
316 320 320 321 316 309 307 304 306 305 304 304 303 301 298 295 290 288 285 283 282 282 281 278 276 268 263 263 262 261 258 256 251 249 250 252 253 253 252 249 249 250 249
314 313 312 314 313 309 305 302 300 300 299 298 297 297 296 294 289 285 283 281 279 279 279 278 276 273 270 266 264 263 263 261 258 255 252 252 252 253 253 249 249 250 250
314 311 309 308 307 305 303 301 299 297 297 296 294 292 292 292 289 285 283 280 277 277 276 276 275 274 270 272 268 264 263 264 262 259 256 254 251 253 254 250 249 250 252
312 310 305 304 304 302 302 301 299 296 295 294 293 291 289 289 288 286 282 279 276 274 273 273 273 273 271 270 270 266 263 263 262 261 258 255 253 254 255 252 251 253 252
308 310 310 307 303 301 301 302 301 298 296 294 293 292 290 287 285 284 283 279 274 272 272 272 272 271 271 270 268 267 267 265 263 262 259 259 256 254 254 253 252 253 253
307 307 308 308 306 302 300 300 300 298 297 294 292 291 289 287 285 284 281 279 276 274 272 272 272 272 271 270 268 268 267 265 266 264 262 261 259 255 253 253 252 253 254
305 305 306 306 305 302 299 297 297 299 298 296 294 291 289 286 284 282 281 280 280 278 276 274 272 271 270 270 269 269 267 267 267 263 264 263 260 256 253 252 252 253 254
306 307 307 307 306 305 303 301 301 300 299 298 296 293 291 288 286 284 282 281 280 278 277 276 274 272 271 270 269 269 267 266 265 264 263 260 260 259 256 254 252 253 252
304 305 306 307 306 304 304 304 304 302 301 301 299 296 294 291 289 287 285 283 282 280 277 276 274 274 272 270 268 267 266 266 265 263 260 259 260 260 259 256 255 254 253
302 303 305 304 304 303 302 303 303 302 301 301 300 298 296 294 292 291 289 287 285 283 280 278 275 274 272 270 268 266 266 265 265 265 261 260 260 258 258 257 256 256 254
302 301 302 303 302 301 300 301 302 301 301 300 299 298 296 294 293 291 290 288 286 284 283 282 279 277 274 271 269 267 265 265 265 266 263 263 262 259 256 256 256 256 254
301 300 300 300 300 300 301 302 301 300 300 299 298 297 296 294 293 292 291 289 287 285 284 282 280 278 276 273 271 268 266 265 264 264 264 263 263 261 256 254 254 255 255
300 301 299 299 301 302 301 302 301 300 300 299 299 298 297 296 295 293 292 291 289 287 285 284 282 280 277 275 272 269 268 267 265 263 262 262 262 259 256 254 253 254 255
299 299 300 302 301 299 300 300 299 299 299 299 299 297 297 297 297 294 293 292 291 289 287 285 283 282 279 278 276 271 269 268 266 264 263 263 261 260 256 254 255 255 253
299 299 301 301 300 300 300 300 300 301 300 299 298 298 297 297 296 294 294 293 292 291 289 287 286 285 283 281 279 274 271 270 267 264 263 262 261 260 257 255 254 255 255
299 301 302 302 300 299 299 300 301 301 301 299 300 300 299 298 297 296 295 294 293 292 290 289 288 286 284 281 278 276 275 273 269 266 263 261 260 258 256 254 255 255 254